WV5G-13 Weather Reports


Display with metric or nautical units.
time (UTC)temp
F
wind
direction
speed
MPH
gust
MPH
rain 1hr
in
rain 24hr
in
rain mn
in
humidity
%
barometer
mb
20260510100423 60 73 15.0 21.0 0.00 0.00 0.00 83 1011.7
20260510095919 60 70 13.0 17.0 0.00 0.00 0.00 83 1011.8
20260510095415 60 66 10.0 14.0 0.00 0.00 0.00 83 1012.1
20260510094914 60 22 7.0 10.0 0.00 0.00 0.00 83 1012.3
20260510094409 60 65 8.0 12.0 0.00 0.00 0.00 83 1011.9
20260510093905 60 63 9.0 14.0 0.00 0.00 0.00 83 1011.7
20260510093401 60 87 10.0 16.0 0.00 0.00 0.00 82 1011.3
20260510092858 61 92 14.0 20.0 0.00 0.00 0.00 82 1010.9
20260510092354 61 85 9.0 19.0 0.00 0.00 0.00 82 1011.0
20260510091849 61 97 10.0 15.0 0.00 0.00 0.00 82 1010.7
20260510091347 61 85 13.0 20.0 0.00 0.00 0.00 82 1010.7
20260510090843 61 99 8.0 17.0 0.00 0.00 0.00 81 1010.5
20260510090340 61 115 15.0 22.0 0.00 0.00 0.00 81 1010.9
20260510085836 61 101 12.0 18.0 0.00 0.00 0.00 80 1010.5
20260510085330 61 107 14.0 22.0 0.00 0.00 0.00 80 1010.3
20260510084826 61 121 14.0 20.0 0.00 0.00 0.00 80 1010.6
20260510084324 62 114 13.0 20.0 0.00 0.00 0.00 79 1010.5
20260510083820 62 106 9.0 16.0 0.00 0.00 0.00 79 1010.6
20260510083317 62 94 10.0 18.0 0.00 0.00 0.00 78 1010.6
20260510082812 62 101 10.0 21.0 0.00 0.00 0.00 78 1010.3
20260510082310 62 84 15.0 19.0 0.00 0.00 0.00 77 1010.5
20260510081809 62 86 10.0 23.0 0.00 0.00 0.00 77 1010.5
20260510081305 62 103 12.0 24.0 0.00 0.00 0.00 76 1010.2
20260510080801 62 103 17.0 22.0 0.00 0.00 0.00 76 1010.3
20260510080255 62 95 13.0 22.0 0.00 0.00 0.00 76 1010.2
20260510075753 62 94 10.0 25.0 0.00 0.00 0.00 75 1010.0
20260510075250 63 101 23.0 25.0 0.00 0.00 0.00 75 1010.1
20260510074747 63 88 12.0 20.0 0.00 0.00 0.00 75 1010.0
20260510074244 63 83 14.0 26.0 0.00 0.00 0.00 74 1009.8
20260510073740 64 86 11.0 22.0 0.00 0.00 0.00 74 1009.6
20260510073236 64 80 18.0 20.0 0.00 0.00 0.00 74 1009.5
20260510072731 64 76 14.0 21.0 0.00 0.00 0.00 74 1009.2
20260510072229 64 72 13.0 15.0 0.00 0.00 0.00 74 1009.6
20260510071725 65 86 8.0 14.0 0.00 0.00 0.00 74 1009.5
20260510071222 65 58 13.0 18.0 0.00 0.00 0.00 74 1009.7
20260510070720 65 46 6.0 15.0 0.00 0.00 0.00 74 1009.7
20260510070217 65 40 10.0 15.0 0.00 0.00 0.00 73 1009.6
20260510065712 66 78 8.0 15.0 0.00 0.00 0.00 73 1009.7
20260510065208 66 83 14.0 20.0 0.00 0.00 0.00 72 1009.5
20260510064705 67 71 11.0 20.0 0.00 0.00 0.00 72 1009.3
20260510064203 67 67 16.0 26.0 0.00 0.00 0.00 72 1009.2
20260510063659 67 54 25.0 25.0 0.00 0.00 0.00 72 1009.1
20260510063155 66 57 22.0 23.0 0.00 0.00 0.00 72 1009.3
20260510062652 67 46 14.0 22.0 0.00 0.00 0.00 71 1009.5
20260510062148 67 61 11.0 22.0 0.00 0.00 0.00 71 1009.5
20260510061643 68 69 20.0 20.0 0.00 0.00 0.00 70 1009.7
20260510061141 68 88 9.0 17.0 0.00 0.00 0.00 69 1009.9
20260510060637 68 78 9.0 15.0 0.00 0.00 0.00 69 1009.9
20260510060134 68 74 12.0 18.0 0.00 0.00 0.00 69 1009.9
20260510055630 68 70 10.0 17.0 0.00 0.00 0.00 68 1009.8
20260510055128 68 63 11.0 20.0 0.00 0.00 0.00 68 1010.0
20260510054624 69 51 12.0 25.0 0.00 0.00 0.00 68 1009.8
20260510054119 69 58 19.0 26.0 0.00 0.00 0.00 67 1009.6
20260510053618 68 44 15.0 22.0 0.00 0.00 0.00 67 1009.9
20260510053116 69 58 11.0 17.0 0.00 0.00 0.00 66 1009.7
20260510052611 69 63 13.0 17.0 0.00 0.00 0.00 65 1009.7
20260510052108 70 64 7.0 10.0 0.00 0.00 0.00 64 1009.5
20260510051603 70 100 5.0 10.0 0.00 0.00 0.00 64 1009.6
20260510051101 70 106 5.0 15.0 0.00 0.00 0.00 63 1009.2
20260510050558 71 85 7.0 15.0 0.00 0.00 0.00 63 1009.2
20260510050055 71 92 10.0 13.0 0.00 0.00 0.00 62 1008.9
20260510045552 71 85 13.0 15.0 0.00 0.00 0.00 62 1009.0
20260510045048 71 84 11.0 14.0 0.00 0.00 0.00 62 1009.1
20260510044544 71 99 10.0 12.0 0.00 0.00 0.00 62 1008.9
20260510044042 71 94 5.0 14.0 0.00 0.00 0.00 61 1008.8
20260510043537 71 103 10.0 13.0 0.00 0.00 0.00 61 1008.8
20260510043033 71 86 12.0 15.0 0.00 0.00 0.00 60 1008.8
20260510042527 72 88 10.0 16.0 0.00 0.00 0.00 60 1008.8
20260510042022 71 103 9.0 14.0 0.00 0.00 0.00 60 1008.7
20260510041520 70 77 7.0 9.0 0.00 0.00 0.00 58 1008.3
20260510041017 71 73 7.0 11.0 0.00 0.00 0.00 58 1008.5
20260510040514 70 81 7.0 9.0 0.00 0.00 0.00 56 1008.5
20260510040009 70 88 4.0 5.0 0.00 0.00 0.00 54 1008.6
20260510035506 71 20 5.0 6.0 0.00 0.00 0.00 51 1008.6
20260510035005 72 120 5.0 6.0 0.00 0.00 0.00 53 1008.6
20260510034504 72 130 7.0 11.0 0.00 0.00 0.00 53 1008.6
20260510034000 71 143 6.0 9.0 0.00 0.00 0.00 48 1008.3
20260510033456 71 174 6.0 13.0 0.00 0.00 0.00 42 1008.6
20260510032954 70 225 4.0 6.0 0.00 0.00 0.00 37 1008.1
20260510032450 69 254 2.0 3.0 0.00 0.00 0.00 40 1007.7
20260510031945 70 50 5.0 8.0 0.00 0.00 0.00 36 1007.4
20260510031441 71 66 6.0 8.0 0.00 0.00 0.00 30 1007.4
20260510030936 71 50 7.0 9.0 0.00 0.00 0.00 29 1007.7
20260510030432 71 59 10.0 14.0 0.00 0.00 0.00 25 1007.4
20260510025930 72 10 4.0 9.0 0.00 0.00 0.00 22 1007.1
20260510025427 71 19 8.0 9.0 0.00 0.00 0.00 22 1006.6
20260510024925 69 15 5.0 6.0 0.00 0.00 0.00 23 1006.7
20260510024421 70 21 5.0 6.0 0.00 0.00 0.00 22 1006.4
20260510023917 71 96 3.0 4.0 0.00 0.00 0.00 22 1006.6
20260510023413 71 61 4.0 6.0 0.00 0.00 0.00 21 1006.2
20260510022911 72 59 4.0 6.0 0.00 0.00 0.00 21 1006.0
20260510022410 72 33 4.0 5.0 0.00 0.00 0.00 20 1006.1
20260510021909 73 57 5.0 7.0 0.00 0.00 0.00 19 1005.8
20260510021407 73 55 5.0 5.0 0.00 0.00 0.00 18 1005.8
20260510020903 74 36 3.0 4.0 0.00 0.00 0.00 18 1006.0
20260510020358 74 50 3.0 4.0 0.00 0.00 0.00 17 1005.8
20260510015854 75 64 4.0 5.0 0.00 0.00 0.00 17 1005.7
20260510015350 75 36 3.0 3.0 0.00 0.00 0.00 17 1005.6
20260510014845 75 51 2.0 3.0 0.00 0.00 0.00 17 1005.3
20260510014343 76 73 2.0 3.0 0.00 0.00 0.00 17 1005.4
20260510013839 76 59 3.0 4.0 0.00 0.00 0.00 18 1005.2
20260510013335 77 75 3.0 4.0 0.00 0.00 0.00 18 1005.1
20260510012830 79 55 3.0 4.0 0.00 0.00 0.00 17 1005.2
20260510012330 80 45 3.0 5.0 0.00 0.00 0.00 17 1005.1
20260510011825 80 33 3.0 4.0 0.00 0.00 0.00 16 1005.0
20260510011320 82 21 3.0 5.0 0.00 0.00 0.00 15 1004.8
20260510010817 82 25 3.0 3.0 0.00 0.00 0.00 16 1005.0
20260510010315 84 30 3.0 3.0 0.00 0.00 0.00 15 1004.8
20260510005811 85 21 3.0 4.0 0.00 0.00 0.00 14 1004.7
20260510005307 86 24 3.0 5.0 0.00 0.00 0.00 14 1004.9
20260510004805 87 15 3.0 4.0 0.00 0.00 0.00 14 1005.0
20260510004302 87 3 3.0 5.0 0.00 0.00 0.00 13 1004.9
20260510003800 88 4 3.0 4.0 0.00 0.00 0.00 12 1005.0
20260510003257 88 354 5.0 6.0 0.00 0.00 0.00 12 1004.9
20260510002755 89 29 8.0 8.0 0.00 0.00 0.00 12 1005.0
20260510002253 90 358 7.0 7.0 0.00 0.00 0.00 11 1005.0
20260510001749 90 269 0.0 4.0 0.00 0.00 0.00 11 1004.8
20260510001248 89 325 4.0 7.0 0.00 0.00 0.00 13 1005.3
20260510000743 89 309 4.0 10.0 0.00 0.00 0.00 13 1005.0
20260510000241 89 336 5.0 9.0 0.00 0.00 0.00 12 1005.0
20260509235737 89 341 5.0 10.0 0.00 0.00 0.00 13 1005.1
20260509235234 90 308 7.0 13.0 0.00 0.00 0.00 12 1005.2
20260509234730 90 281 4.0 9.0 0.00 0.00 0.00 11 1005.1
20260509234227 89 281 4.0 13.0 0.00 0.00 0.00 13 1005.6
20260509233725 90 306 11.0 11.0 0.00 0.00 0.00 11 1005.4
20260509233223 90 281 11.0 15.0 0.00 0.00 0.00 12 1005.3
20260509232718 90 306 12.0 18.0 0.00 0.00 0.00 11 1005.3
20260509232216 89 310 8.0 17.0 0.00 0.00 0.00 12 1005.7
20260509231712 89 312 10.0 19.0 0.00 0.00 0.00 12 1005.2
20260509231209 89 312 9.0 16.0 0.00 0.00 0.00 13 1005.1
20260509230707 89 252 9.0 19.0 0.00 0.00 0.00 13 1005.4
20260509230203 89 248 5.0 15.0 0.00 0.00 0.00 13 1005.1
20260509225659 90 290 13.0 17.0 0.00 0.00 0.00 12 1005.2
20260509225155 89 275 8.0 18.0 0.00 0.00 0.00 13 1005.6
20260509224651 90 249 13.0 26.0 0.00 0.00 0.00 13 1005.3
20260509224148 89 314 11.0 17.0 0.00 0.00 0.00 12 1005.3
20260509223645 90 287 5.0 11.0 0.00 0.00 0.00 13 1005.3
20260509223142 90 265 10.0 16.0 0.00 0.00 0.00 13 1005.6
20260509222639 89 299 9.0 16.0 0.00 0.00 0.00 12 1005.4
20260509222134 90 265 3.0 8.0 0.00 0.00 0.00 14 1005.2
20260509221630 90 309 6.0 9.0 0.00 0.00 0.00 14 1005.4
20260509221126 90 271 10.0 20.0 0.00 0.00 0.00 14 1005.7
20260509220622 90 294 13.0 22.0 0.00 0.00 0.00 14 1005.1
20260509220113 90 266 6.0 12.0 0.00 0.00 0.00 15 1005.3
20260509215609 90 312 7.0 13.0 0.00 0.00 0.00 16 1005.6
20260509215106 90 283 7.0 19.0 0.00 0.00 0.00 15 1005.7
20260509214602 89 254 5.0 25.0 0.00 0.00 0.00 15 1005.7
20260509214059 89 268 3.0 17.0 0.00 0.00 0.00 14 1005.7
20260509213555 89 304 13.0 20.0 0.00 0.00 0.00 14 1005.7
20260509213052 89 289 6.0 13.0 0.00 0.00 0.00 16 1005.6
20260509212549 89 325 13.0 17.0 0.00 0.00 0.00 17 1005.8
20260509212046 90 292 4.0 23.0 0.00 0.00 0.00 16 1005.9
20260509211541 89 313 14.0 23.0 0.00 0.00 0.00 15 1006.0
20260509211039 89 320 6.0 10.0 0.00 0.00 0.00 18 1006.0
20260509210536 89 284 7.0 16.0 0.00 0.00 0.00 19 1006.2
20260509210032 89 305 11.0 18.0 0.00 0.00 0.00 18 1006.3
20260509205526 90 292 17.0 17.0 0.00 0.00 0.00 18 1006.3
20260509205022 89 294 7.0 12.0 0.00 0.00 0.00 20 1006.3
20260509204518 89 298 9.0 12.0 0.00 0.00 0.00 22 1006.3
20260509204015 88 300 6.0 13.0 0.00 0.00 0.00 20 1006.6
20260509203511 88 306 5.0 15.0 0.00 0.00 0.00 21 1006.7
20260509203009 88 297 11.0 19.0 0.00 0.00 0.00 19 1006.6
20260509202503 88 278 2.0 9.0 0.00 0.00 0.00 20 1006.3
20260509201959 87 234 15.0 20.0 0.00 0.00 0.00 21 1006.9
20260509201454 88 239 13.0 13.0 0.00 0.00 0.00 21 1006.8
20260509200951 88 246 20.0 25.0 0.00 0.00 0.00 21 1006.8
20260509200446 88 277 6.0 22.0 0.00 0.00 0.00 20 1006.9
20260509195943 87 242 7.0 12.0 0.00 0.00 0.00 20 1007.1
20260509195439 88 242 10.0 17.0 0.00 0.00 0.00 21 1007.0
20260509194938 87 315 9.0 21.0 0.00 0.00 0.00 21 1007.2
20260509194434 88 292 10.0 16.0 0.00 0.00 0.00 22 1007.2
20260509193931 87 247 5.0 8.0 0.00 0.00 0.00 23 1007.6
20260509193431 86 230 9.0 10.0 0.00 0.00 0.00 21 1007.2
20260509192927 86 290 6.0 15.0 0.00 0.00 0.00 23 1007.6
20260509192424 86 219 11.0 18.0 0.00 0.00 0.00 21 1007.7
20260509191919 87 229 14.0 28.0 0.00 0.00 0.00 20 1007.8
20260509191414 87 224 11.0 20.0 0.00 0.00 0.00 21 1007.8
20260509190911 86 289 4.0 13.0 0.00 0.00 0.00 25 1007.8
20260509190408 87 233 14.0 24.0 0.00 0.00 0.00 21 1008.1
20260509185906 86 212 7.0 14.0 0.00 0.00 0.00 22 1007.9
20260509185403 86 246 11.0 17.0 0.00 0.00 0.00 23 1008.2
20260509184859 86 228 13.0 26.0 0.00 0.00 0.00 21 1008.1
20260509184356 86 244 14.0 26.0 0.00 0.00 0.00 22 1008.1
20260509183854 87 229 14.0 22.0 0.00 0.00 0.00 21 1008.3
20260509183348 85 222 14.0 20.0 0.00 0.00 0.00 22 1008.2
20260509182844 86 229 16.0 22.0 0.00 0.00 0.00 24 1008.2
20260509182341 85 234 14.0 28.0 0.00 0.00 0.00 23 1008.3
20260509181838 85 234 10.0 17.0 0.00 0.00 0.00 26 1008.6
20260509181336 85 235 13.0 26.0 0.00 0.00 0.00 24 1008.7
20260509180833 84 221 16.0 29.0 0.00 0.00 0.00 24 1008.9
20260509180329 84 208 13.0 21.0 0.00 0.00 0.00 26 1008.7
20260509175826 84 205 12.0 14.0 0.00 0.00 0.00 26 1009.2
20260509175322 84 214 16.0 37.0 0.00 0.00 0.00 25 1009.2
20260509174818 84 218 13.0 20.0 0.00 0.00 0.00 27 1009.2
20260509174314 83 223 9.0 15.0 0.00 0.00 0.00 29 1009.1
20260509173810 83 197 6.0 21.0 0.00 0.00 0.00 29 1009.3
20260509173306 82 208 9.0 15.0 0.00 0.00 0.00 30 1009.6
20260509172801 82 207 15.0 29.0 0.00 0.00 0.00 30 1009.8
20260509172253 83 184 12.0 25.0 0.00 0.00 0.00 29 1009.7
20260509171748 82 158 14.0 18.0 0.00 0.00 0.00 30 1009.6
20260509171245 81 196 5.0 18.0 0.00 0.00 0.00 31 1009.7
20260509170742 82 180 14.0 20.0 0.00 0.00 0.00 30 1009.6
20260509170238 82 194 20.0 20.0 0.00 0.00 0.00 29 1009.9
20260509165736 81 162 8.0 16.0 0.00 0.00 0.00 33 1009.7
20260509165232 80 202 10.0 20.0 0.00 0.00 0.00 33 1009.9
20260509164728 80 187 7.0 18.0 0.00 0.00 0.00 33 1009.9
20260509164224 80 202 23.0 23.0 0.00 0.00 0.00 33 1010.1
20260509163721 79 191 5.0 16.0 0.00 0.00 0.00 35 1010.2
20260509163217 80 200 5.0 18.0 0.00 0.00 0.00 33 1010.2
20260509162715 79 191 14.0 23.0 0.00 0.00 0.00 35 1010.6
20260509162210 79 209 15.0 17.0 0.00 0.00 0.00 35 1010.3
20260509161706 79 177 10.0 20.0 0.00 0.00 0.00 35 1010.5
20260509161203 78 184 7.0 25.0 0.00 0.00 0.00 36 1010.3
20260509160658 78 185 5.0 18.0 0.00 0.00 0.00 36 1010.3
20260509160154 78 200 15.0 15.0 0.00 0.00 0.00 36 1010.6
20260509155650 77 176 5.0 13.0 0.00 0.00 0.00 39 1010.3
20260509155146 77 157 10.0 14.0 0.00 0.00 0.00 40 1010.7
20260509154642 77 166 9.0 14.0 0.00 0.00 0.00 39 1010.7
20260509154139 77 171 7.0 13.0 0.00 0.00 0.00 38 1010.6
20260509153636 75 184 13.0 13.0 0.00 0.00 0.00 41 1010.5
20260509153133 75 190 5.0 13.0 0.00 0.00 0.00 40 1010.8
20260509152628 75 177 6.0 13.0 0.00 0.00 0.00 40 1010.7
20260509152126 74 195 5.0 12.0 0.00 0.00 0.00 43 1011.0
20260509151622 74 174 7.0 11.0 0.00 0.00 0.00 43 1011.0
20260509151120 73 196 4.0 14.0 0.00 0.00 0.00 43 1010.9
20260509150618 73 162 3.0 13.0 0.00 0.00 0.00 44 1011.1
20260509150116 71 131 13.0 13.0 0.00 0.00 0.00 49 1011.0
20260509145611 72 137 11.0 17.0 0.00 0.00 0.00 48 1011.0
20260509145107 72 183 4.0 15.0 0.00 0.00 0.00 49 1011.0
20260509144604 72 177 5.0 14.0 0.00 0.00 0.00 48 1011.1
20260509144101 71 144 8.0 14.0 0.00 0.00 0.00 51 1011.0
20260509143558 70 138 9.0 14.0 0.00 0.00 0.00 56 1011.1
20260509143056 70 145 9.0 15.0 0.00 0.00 0.00 56 1010.9
20260509142551 71 167 4.0 10.0 0.00 0.00 0.00 55 1011.0
20260509142047 71 177 5.0 9.0 0.00 0.00 0.00 53 1011.5
20260509141543 69 182 6.0 9.0 0.00 0.00 0.00 55 1011.2
20260509141040 69 138 5.0 9.0 0.00 0.00 0.00 56 1011.1
20260509140537 68 132 6.0 8.0 0.00 0.00 0.00 56 1011.1
20260509140035 68 118 5.0 8.0 0.00 0.00 0.00 54 1011.2
20260509135532 68 95 2.0 5.0 0.00 0.00 0.00 50 1011.2
20260509135030 67 353 0.0 3.0 0.00 0.00 0.00 50 1011.3
20260509134526 67 22 1.0 4.0 0.00 0.00 0.00 46 1011.3
20260509134024 66 88 2.0 5.0 0.00 0.00 0.00 47 1011.3
20260509133520 65 44 2.0 5.0 0.00 0.00 0.00 45 1011.1
20260509133019 66 36 2.0 4.0 0.00 0.00 0.00 44 1011.1
20260509132517 64 53 3.0 5.0 0.00 0.00 0.00 45 1011.5
20260509132015 64 60 3.0 4.0 0.00 0.00 0.00 44 1011.5
20260509131510 65 73 3.0 5.0 0.00 0.00 0.00 43 1011.5
20260509131007 65 55 1.0 3.0 0.00 0.00 0.00 44 1011.2
20260509130503 63 64 2.0 2.0 0.00 0.00 0.00 47 1011.5
20260509130000 61 69 3.0 4.0 0.00 0.00 0.00 48 1011.3
20260509125456 60 74 3.0 3.0 0.00 0.00 0.00 49 1011.1
20260509124952 60 76 2.0 3.0 0.00 0.00 0.00 52 1011.2
20260509124449 58 59 1.0 2.0 0.00 0.00 0.00 52 1011.0
20260509123947 58 81 3.0 3.0 0.00 0.00 0.00 54 1011.2
20260509123444 55 76 2.0 2.0 0.00 0.00 0.00 59 1011.1
20260509122940 54 33 2.0 2.0 0.00 0.00 0.00 60 1011.2
20260509122437 55 45 3.0 3.0 0.00 0.00 0.00 59 1011.1
20260509121933 54 57 2.0 2.0 0.00 0.00 0.00 60 1011.1
20260509121430 53 44 1.0 2.0 0.00 0.00 0.00 60 1011.1
20260509120929 53 69 1.0 2.0 0.00 0.00 0.00 59 1011.1
20260509120426 53 244 0.0 3.0 0.00 0.00 0.00 59 1010.9
20260509115924 54 154 0.0 1.0 0.00 0.00 0.00 59 1011.2
20260509115421 53 173 0.0 1.0 0.00 0.00 0.00 60 1010.9
20260509114919 52 137 0.0 1.0 0.00 0.00 0.00 61 1011.0
20260509114417 52 126 0.0 1.0 0.00 0.00 0.00 61 1010.8
20260509113916 52 235 0.0 0.0 0.00 0.00 0.00 62 1011.0
20260509113413 52 233 1.0 2.0 0.00 0.00 0.00 61 1011.2
20260509112910 52 108 1.0 3.0 0.00 0.00 0.00 61 1011.0
20260509112407 52 180 0.0 1.0 0.00 0.00 0.00 63 1010.8
20260509111904 51 89 1.0 3.0 0.00 0.00 0.00 62 1011.0
20260509111400 51 92 2.0 2.0 0.00 0.00 0.00 62 1010.9
20260509110859 51 63 0.0 2.0 0.00 0.00 0.00 62 1011.1
20260509110354 52 72 1.0 2.0 0.00 0.00 0.00 61 1010.9
20260509105853 52 74 1.0 3.0 0.00 0.00 0.00 59 1011.0
20260509105351 53 73 3.0 4.0 0.00 0.00 0.00 59 1011.0
20260509104847 52 102 5.0 5.0 0.00 0.00 0.00 59 1011.1
20260509104343 52 111 4.0 6.0 0.00 0.00 0.00 59 1011.2
20260509103841 52 113 5.0 6.0 0.00 0.00 0.00 60 1011.2
20260509103339 51 102 2.0 4.0 0.00 0.00 0.00 59 1011.2
20260509102838 52 71 3.0 4.0 0.00 0.00 0.00 58 1011.3
20260509102334 53 92 4.0 5.0 0.00 0.00 0.00 57 1011.3
20260509101830 53 115 6.0 7.0 0.00 0.00 0.00 57 1011.1
20260509101326 53 117 4.0 7.0 0.00 0.00 0.00 56 1011.6